Hourly Data Report for October 22, 2020

MUSKOKA
ONTARIO
Current Station Operator: NAVCAN

44°58'29.000" N
79°18'12.000" W
281.90 m
6115529
71532
YQA

Download Data

Hourly Data (October 2020)
Hourly Data Report for October 22, 2020
TIME Temp Definition
°C
Dew Point Definition
°C
Rel Hum Definition
%
Wind Dir Definition
10's deg

Wind Spd Definition
km/h
Visibility Definition
km
Stn Press Definition
kPa
Hmdx Definition


Wind Chill Definition


Weather Definition


00:00 5.2 5.1 99 19 9 16.1 98.95     LegendNANA
01:00 5.4 4.8 96 17 5 16.1 98.92     LegendNANA
02:00 5.4 4.9 96 LegendMM 4 16.1 98.95     LegendNANA
03:00 6.3 5.7 96 16 8 16.1 98.91     LegendNANA
04:00 5.7 5.4 98 LegendMM 4 16.1 98.91     Rain
05:00 5.7 5.6 99   0 16.1 99.00     LegendNANA
06:00 5.4 5.3 99   0 16.1 99.02     LegendNANA
07:00 5.2 5.1 99   0 12.9 99.05     LegendNANA
08:00 6.0 5.9 99   0 16.1 99.06     LegendNANA
09:00 7.2 6.0 92   0 16.1 99.10     LegendNANA
10:00 8.1 6.2 88 LegendMM 4 16.1 99.12     LegendNANA
11:00 8.6 5.6 81 33 5 16.1 99.17     LegendNANA
12:00 9.4 6.2 80 LegendMM 4 16.1 99.06     LegendNANA
13:00 9.9 6.5 79 LegendMM 4 16.1 99.00     LegendNANA
14:00 9.8 6.0 77 13 5 16.1 98.93     LegendNANA
15:00 10.3 5.0 70 LegendMM 4 16.1 98.92     LegendNANA
16:00 9.9 6.1 77 13 9 16.1 98.91     LegendNANA
17:00 9.5 5.9 78 12 8 16.1 98.89     LegendNANA
18:00 9.2 6.5 83 LegendMM 4 16.1 98.83     LegendNANA
19:00 8.6 7.2 91 LegendMM 4 8.1 98.82     Rain,Fog
20:00 8.1 7.7 97 9 9 4.8 98.76     Rain,Fog
21:00 8.2 7.8 97 3 5 4.8 98.74     Rain,Fog
22:00 8.1 7.7 97 11 8 16.1 98.61     Rain
23:00 8.2 7.5 95 11 13 16.1 98.47     LegendNANA

Notes on Data Quality.

Legend

  • E = Estimated
  • M = Missing
  • NA = Not Available*
  • [empty] = Indicates an unobserved value
Date modified: